Regional Weather Roundup
Issued by NWS

Home | Current Version | Previous Version | Graphics & Text | Print | Product List | Glossary Off
Versions: 1 2 3 4 5 6 7 8 9 10 11 12 13 14 15 16 17 18 19 20 21 22 23 24 25 26 27 28 29 30 31 32 33 34 35 36 37 38 39 40 41 42 43 44 45 46 47 48 49 50

000
ASUS43 KDTX 020510
RWRMI
MICHIGAN HOURLY REGIONAL WEATHER ROUNDUP
NATIONAL WEATHER SERVICE DETROIT/PONTIAC MI
100 AM EDT SUN AUG 02 2015

NOTE: "FAIR" INDICATES FEW OR NO CLOUDS BELOW 12,000 FEET WITH NO
SIGNIFICANT WEATHER AND/OR OBSTRUCTION TO VISIBILITY.

MIZ047>049-052>055-059>063-066>070-074>076-081>083-020600-
SOUTHEAST LOWER MICHIGAN

CITY           SKY/WX    TMP DP  RH WIND       PRES   REMARKS
ADRIAN         PTCLDY    66  58  75 SW3       29.92S
ALMA           CLEAR     57  53  88 CALM      29.88S
ANN ARBOR      PTCLDY    59  56  89 SW5       29.90F
BAD AXE        CLEAR     57  54  89 CALM      29.87R
DETROIT CITY   CLEAR     72  51  47 W5        29.89S
DETROIT        PTCLDY    68  55  63 SW6       29.90S
FLINT          CLEAR     63  51  65 SW3       29.89S
GROSSE ILE     CLEAR     68  57  68 SW3       29.89S
HILLSDALE      PTCLDY    63  61  94 CALM      29.93R
HOWELL         CLEAR     64  52  65 SW3       29.90F

CITY           SKY/WX    TMP DP  RH WIND       PRES   REMARKS
JACKSON        MOCLDY    65  58  78 CALM      29.91F
LAMBERTVILLE   MOCLDY    69  60  73 CALM      29.92S
LANSING        CLEAR     66  54  65 CALM      29.90S
LAPEER         NOT AVBL
MASON          CLEAR     61  54  79 CALM      29.90F
MONROE         MOCLDY    67  60  79 CALM      29.90S
MT. CLEMENS    CLEAR     68  51  54 W6        29.87S
PONTIAC        CLEAR     65  53  65 W6        29.89F
PORT HOPE        N/A     64  58  80 W7        29.83S
PORT HURON     CLEAR     61  52  72 CALM      29.88S
TRI CITIES     CLEAR     64  52  64 SW7       29.87F
YPSILANTI      CLEAR     67  56  67 W7        29.91S
$$
MIZ043>046-050>051-056>058-064>065-071>073-077>080-020600-
SOUTHWEST LOWER MICHIGAN

CITY           SKY/WX    TMP DP  RH WIND       PRES   REMARKS
BATTLE CREEK   MOCLDY    67  59  75 CALM      29.90F
BENTON HARBOR  CLEAR     67  62  84 CALM      29.88F
BIG RAPIDS     CLEAR     58  55  88 CALM      29.87S
COLDWATER      PTCLDY    64  60  88 CALM      29.91S
HOLLAND        CLEAR     65  57  75 CALM      29.88S
GRAND RAPIDS   CLEAR     63  56  78 CALM      29.88F
KALAMAZOO      MOCLDY    70  59  68 S3        29.90F
MARSHALL       CLOUDY    64  59  85 CALM      29.90S
MUSKEGON       CLEAR     66  59  78 SE3       29.86S
$$
MIZ016>042-020600-
NORTHERN LOWER MICHIGAN

CITY           SKY/WX    TMP DP  RH WIND       PRES   REMARKS
ALPENA         CLEAR     61  54  77 S3        29.81S
BEAVER ISLAND  CLEAR     67  62  86 SW7       29.78S HAZE
BELLAIRE       CLEAR     64  55  72 S3        29.81S
CADILLAC       CLEAR     62  53  73 CALM      29.86S
CHARLEVOIX     CLEAR     67  56  67 SW6       29.82S
FRANKFORT      CLEAR     69  60  72 S3        29.81F
GAYLORD        CLEAR     62  53  72 SW6       29.83S
GRAYLING       CLEAR     56  52  85 CALM      29.85S
HARBOR SPRINGS CLEAR     67  56  67 W3        29.79S
HOUGHTON LAKE  CLEAR     67  54  63 SW7       29.86S
MANISTEE       CLEAR     59  54  82 CALM      29.84S
OSCODA         CLEAR     61  53  73 CALM      29.83S
PELLSTON       CLEAR     59  53  80 CALM      29.79S
TRAVERSE CITY  CLEAR     67  51  56 S3        29.79F
$$
MIZ007>008-015-020600-
EASTERN UPPER MICHIGAN

CITY           SKY/WX    TMP DP  RH WIND       PRES   REMARKS
KINROSS        MOCLDY    63  61  94 S6        29.76F
MACKINAC ISLAN   N/A     65  61  85 SW7       29.77S
NEWBERRY       CLOUDY    60  59  96 SW7       29.75F
S. S. MARIE    CLEAR     61  57  87 S5        29.75F
$$
MIZ004>006-011>014-085-020600-
CENTRAL UPPER MICHIGAN

CITY           SKY/WX    TMP DP  RH WIND       PRES   REMARKS
MANISTIQUE     CLEAR     55  54  94 CALM      29.75F
ESCANABA       CLEAR     61  54  77 W3        29.76S
MENOMINEE      PTCLDY    66  52  59 W5        29.78S
SAWYER-GWINN   CLEAR     61  50  67 S7        29.76F
$$
MIZ001>003-009>011-084-020600-
WESTERN UPPER MICHIGAN

CITY           SKY/WX    TMP DP  RH WIND       PRES   REMARKS
IRON MOUNTAIN  CLEAR     62  53  72 S3        29.77F
HOUGHTON       CLEAR     70  52  52 W12       29.69F
COPPER HARBOR    N/A     71  49  45 VRB7      29.65F
IRONWOOD       PTCLDY    66  55  68 SW8       29.73S
$$

ABBREVIATIONS USED IN REMARKS
   TC - TEMPERATURE IN CELSIUS
  WCI - WIND CHILL INDEX
   HX - HEAT INDEX
  VSB - VISIBILITY




USA.gov is the U.S. government's official web portal to all federal, state and local government web resources and services.